Location: Hobi?a Gr?di?te
(45.4833°N, 22.7833°E)
Time: 05:27:17
(UTC+00:00)

Lacrosse 5 - Pass Details

Date: 28 January 2023
Orbit: 714 x 724 km, 57.0° (Epoch: 09 March)

Event Time Altitude Azimuth Distance (km) Brightness Sun altitude
Rises 16:57:00 0° 180° (S) 3,119 5.3 -15.4°
Reaches altitude 10° 17:00:05 10° 161° (SSE) 2,205 4.3 -16.0°
Enters shadow 17:03:04 17° 125° (SE) 1,768 3.5 -16.5°
